OBJECT H

Satellite information

Favourite Embed

Satellite Type and Status

UNKNOWNIN ORBIT

Key statistics

Satellite OBJECT H at a glance.

Uptime

162

Days in orbit

Revolutions

≈ 15.2

Per day

Orbit

SSO

Sun Synchronous Orbit

Inclination

97.4

Latest

Satellite identification and parameters

Extended collection of information and parameters for OBJECT H.

Object identification

Identified? True

Debris? False

Object name: OBJECT H

International designator: 2025-100H

Object number (NORAD): 63989

Object ID (CCSDS): 63989

Country: PEOPLES REPUBLIC OF CHINA (PRC)

Current information (Y/N): Y

RCS size: MEDIUM

Orbital parameters

Period: 94.491 minutes

Inclination: 97.3969 deg

SMA: 6872.063 km

Apoapsis: 503.224 km

Periapsis: 484.631 km

RAAN: 7.6973 deg

Eccentricy: 0.0013528

Argument of periapsis: 72.0679 deg

Mean anomaly: 288.2032 deg

Mean motion: 15.23954736 rev/day

Mean motion (dot): 0.00034606 rev/day2

B* drag term: 0.0014247 1/REarth

Two-line elements (TLE)

Creation date: Oct. 22, 2025, 12:16 a.m.

Reference frame: TEME

Reference center: EARTH

Epoch: Oct. 21, 2025, 7:48 p.m. UTC

TLE line 0: 0 OBJECT H

TLE line 1: 1 63989U 25100H 25294.82501106 .00034606 00000-0 14247-2 0 9997

TLE line 2: 2 63989 97.3969 7.6973 0013528 72.0679 288.2032 15.23954736 24402

Live tracking on map

Real-time ground track for satellite OBJECT H.

In-orbit conjunctions

There are no conjunctions computed for OBJECT H, at the moment. Check back to stay up to date, as we update our databases every day.

Go to all conjunctions

Associated space launch

12 satellites from ADASPACE testing in-orbit data processing capabilities for other satellites with artificial intelligence assistance, as well as inter-satellite laser link communication techniques.

OBJECT H was lifted into orbit during the mission ‘Long March 2D | Space Computing Constellation’, on board a Long March 2D space rocket.

The launch took place on May 14, 2025, 4:12 a.m. from Launch Area 4 (SLS-2 / 603).

For more information about the launch, click the button.

Launch to space Long March 2D | Space Computing Constellation
Long March 2D | Space Computing Constellation

Agency: N/A

Status: Launch Successful

Launch date: May 14, 2025, 4:12 a.m. UTC

Rocket: Long March 2D

Launch pad: Launch Area 4 (SLS-2 / 603)

Location: Jiuquan Satellite Launch Center, People's Republic of China

...

Latest news about this satellite

News about space launch
Rocket Report: How is your payload fairing? Poland launches test rocket.

No thunder down under.

News about space launch
China launches first of 2,800 satellites for AI space computing constellation

China launched 12 satellites early Wednesday for a pioneering on-orbit computing project led by startup ADA Space and Zhejiang Lab. The post China launches first of 2,800 satellites for AI space computing constellation appeared first on SpaceNews.

News about space launch
Launch Roundup: Orbital launches from five countries planned

On the heels of a busy April, activity is ramping up for May with launches… The post Launch Roundup: Orbital launches from five countries planned appeared first on NASASpaceFlight.com.


Newsletter sign-up

Weekly statistics, charts and insights to help you stay on top of the space industry.